www.pogodaiklimat.ru

Погода и климат >> Архив погоды >> Швейцария >> Zurich


АРХИВ ПОГОДЫ в Zurich

Время (UTC), дата Ветер
(напр.,м/с)
 
Видим.   Явления Облачность Т
(С)
Тd
(С)
f
(%)
Тe
(С)
Тes
(С)
Комфортность P
(гПа)
Po
(гПа)
Тmin
(С)
Tmax
(С)
R
(мм)
R24
(мм)
S
(см)
22 11.12 ЮЗ 7
{14}
н/о н/о +4.9 +2.0 81 -1 -1 тепло 992.6 927.5 0.1
23 11.12 ЮЗ 7
{16}
н/о н/о +5.5 +1.6 76 0 0 по сезону 993.6 928.6
00 12.12 З 5
{16}
н/о н/о +3.0 +1.6 91 -2 -2 по сезону 995.8 930.1
01 12.12 З 6
{9}
н/о н/о +3.4 +1.7 89 -2 -2 по сезону 996.8 931.1
02 12.12 З 10
{19}
н/о н/о +4.5 +1.6 81 -2 -2 по сезону 998.4 932.8
03 12.12 З 6
{20}
н/о н/о +3.8 +1.6 86 -2 -2 по сезону 1000.5 934.6
04 12.12 З 5
{13}
н/о н/о +1.8 -0.4 85 -4 -4 по сезону 1003.9 937.3
05 12.12 З 5
{11}
н/о н/о +1.8 -2.6 73 -4 -4 по сезону 1006.1 939.4
06 12.12 З 4 н/о н/о +1.7 -2.6 73 -3 -3 по сезону 1007.8 941.0 +1.6
07 12.12 З 4
{9}
н/о н/о +1.9 -2.7 72 -3 -3 по сезону 1009.5 942.6
08 12.12 З 3
{9}
н/о н/о +1.9 -2.8 71 -2 -2 по сезону 1010.9 943.9
09 12.12 ЮЗ 2
{9}
н/о н/о +0.7 -1.0 88 -3 -3 прохладно 1012.6 945.2
10 12.12 ЮЗ 2
{6}
н/о н/о +0.7 -0.7 90 -3 -3 по сезону 1014.0 946.5
11 12.12 ЮЗ 2
{6}
н/о н/о +0.6 -0.5 92 -3 -3 по сезону 1014.6 947.0 0.1
12 12.12 Ю 2
{9}
н/о 10/0
[]
+0.7 -0.1 94 -2 -1 прохладно 1014.7 947.2 0.1
13 12.12 Ю 2
{4}
н/о н/о +1.5 -0.4 87 -2 -2 по сезону 1014.6 947.3
14 12.12 ЮЗ 3
{6}
н/о н/о +1.8 -0.8 83 -2 -2 по сезону 1015.3 948.0
15 12.12 З 4
{6}
н/о н/о +1.8 -0.8 83 -3 -3 прохладно 1016.2 948.8
16 12.12 СЗ 2
{5}
н/о н/о +1.3 -0.5 88 -2 -2 по сезону 1017.2 949.6
17 12.12 ЮЗ 3
{5}
н/о н/о +1.2 -0.4 89 -3 -3 по сезону 1018.2 950.5
18 12.12 З 2
{6}
н/о 10/0
[]
+1.0 -0.7 88 -2 -2 по сезону 1019.1 951.3 +2.1
19 12.12 ЮЗ 2
{4}
н/о н/о +0.8 -1.0 88 -2 -2 по сезону 1019.9 952.0
20 12.12 ЮЗ 2
{4}
н/о н/о +0.8 -1.0 88 -2 -2 по сезону 1019.9 952.0
21 12.12 Ю 2
{5}
н/о н/о 0.0 -2.0 86 -3 -3 по сезону 1020.8 952.7
22 12.12 ЮЗ 3
{4}
н/о н/о -0.1 -3.0 81 -4 -4 по сезону 1021.4 953.2
23 12.12 З 2
{4}
н/о н/о +0.1 -3.7 76 -3 -3 по сезону 1021.1 953.0
00 13.12 З 2
{5}
н/о н/о -0.5 -4.0 77 -3 -3 по сезону 1021.0 952.7
01 13.12 З 3
{6}
н/о н/о -0.5 -3.9 78 -5 -5 по сезону 1021.5 953.2
02 13.12 Ю 2
{5}
н/о н/о -0.6 -4.0 78 -4 -4 по сезону 1021.7 953.4
03 13.12 Ю 2
{6}
н/о н/о -1.0 -3.3 84 -5 -5 прохладно 1021.8 953.4
04 13.12 Ю 2
{4}
н/о н/о -0.7 -3.4 82 -4 -4 по сезону 1021.8 953.4
05 13.12 З 1
{4}
н/о н/о -1.7 -3.2 89 -4 -4 по сезону 1021.6 953.0
06 13.12 Ю 2 н/о н/о -1.1 -3.1 86 -5 -5 прохладно 1021.1 952.7 -1.7
07 13.12 Ю 1
{3}
н/о н/о -1.5 -3.3 88 -4 -4 по сезону 1021.0 952.5
08 13.12 Ю 2
{3}
н/о н/о -1.3 -3.2 87 -5 -5 по сезону 1020.6 952.2
09 13.12 Ю 2
{3}
н/о н/о -0.2 -2.7 83 -4 -4 прохладно 1019.8 951.7
10 13.12 ЮЗ 3
{5}
н/о н/о +0.9 -3.8 71 -3 -3 по сезону 1019.1 951.3
11 13.12 Ю 4
{6}
н/о н/о +1.8 -3.8 66 -3 -3 по сезону 1016.9 949.5
12 13.12 Ю 3
{6}
н/о н/о +2.0 -4.0 64 -1 -1 по сезону 1014.9 947.7
13 13.12 ЮЗ 2
{4}
н/о н/о +1.8 -3.4 68 -1 -1 по сезону 1013.5 946.3
14 13.12 Ю 2
{5}
н/о н/о +1.6 -4.0 66 -1 -1 по сезону 1013.0 945.8
15 13.12 ЮЗ 6
{13}
н/о н/о +2.5 -5.9 54 -3 -3 прохладно 1012.5 945.5
16 13.12 ЮЗ 6
{12}
н/о н/о +2.4 -5.0 58 -3 -3 по сезону 1011.8 944.9
17 13.12 ЮЗ 6
{14}
н/о н/о +1.8 -2.3 74 -4 -4 по сезону 1011.6 944.5
18 13.12 ЮЗ 3
{14}
н/о 10/0
[]
+1.8 -2.0 76 -2 -2 по сезону 1011.1 944.1 +2.9
19 13.12 ЮЗ 3
{10}
н/о н/о +1.7 -1.6 79 -2 -2 по сезону 1009.1 942.2
20 13.12 Ю 2
{6}
н/о н/о +1.5 -1.9 78 -1 -1 по сезону 1007.3 940.4
21 13.12 Ю 3
{10}
н/о н/о +1.0 -0.8 88 -3 -3 по сезону 1005.3 938.5 0.2
22 13.12 ЮЗ 4
{6}
н/о н/о +0.9 -0.9 88 -4 -4 по сезону 1004.6 937.8
23 13.12 ЮЗ 7
{14}
н/о н/о +2.6 +0.3 85 -4 -4 по сезону 1003.2 936.9
00 14.12 ЮЗ 11
{19}
н/о н/о +3.9 +1.1 82 -3 -3 по сезону 1003.0 937.0 0.1
01 14.12 ЮЗ 8
{16}
н/о н/о +5.0 +1.7 79 -1 -1 тепло 1002.3 936.6
02 14.12 ЮЗ 9
{20}
н/о н/о +7.2 +1.8 69 +2 +2 тепло 1001.4 936.3
03 14.12 ЮЗ 13
{29}
н/о н/о +9.0 +1.0 57 +4 +4 тепло 1001.1 936.4
04 14.12 З 10
{23}
н/о н/о +5.6 +4.0 89 -1 -1 тепло 1003.1 937.5 0.3
05 14.12 ЮЗ 14
{27}
н/о н/о +6.9 +1.5 68 +1 +1 тепло 1002.8 937.5 0.2
06 14.12 З 10 н/о н/о +6.3 +1.8 73 +1 +1 по сезону 1003.9 938.4 +0.9
07 14.12 З 6
{24}
н/о н/о -0.1 -0.4 98 -7 -7 по сезону 1008.4 941.1 4
08 14.12 З 6
{12}
н/о н/о +1.5 -0.8 85 -5 -5 по сезону 1008.1 941.2 0.2
09 14.12 ЮЗ 3
{24}
н/о н/о +1.5 -0.4 87 -3 -3 по сезону 1008.4 941.5
10 14.12 ЮЗ 3
{7}
н/о н/о +2.2 -0.2 84 -2 -2 по сезону 1008.3 941.5
11 14.12 ЮЗ 4
{7}
н/о н/о +1.8 +0.7 92 -3 -3 по сезону 1007.7 940.9 0.3
12 14.12 ЮЗ 5
{24}
н/о 10/0
[]
+3.0 +1.1 87 -2 -2 по сезону 1007.0 940.5
13 14.12 ЮЗ 5
{11}
н/о н/о +2.4 +1.3 92 -3 -3 по сезону 1006.3 939.7 0.1
14 14.12 ЮЗ 7
{13}
н/о н/о +3.2 +0.5 82 -3 -3 по сезону 1005.1 938.8
15 14.12 ЮЗ 6
{13}
н/о н/о +2.4 +0.4 87 -3 -3 прохладно 1004.7 938.2
16 14.12 ЮЗ 5
{12}
н/о н/о +2.4 +1.0 90 -3 -3 по сезону 1003.7 937.3 0.2
17 14.12 Ю 3
{8}
н/о н/о +0.7 +0.4 98 -4 -4 по сезону 1003.2 936.4 2
18 14.12 Ю 4
{13}
н/о 10/0
[]
+0.7 +0.2 96 -5 -5 прохладно 1001.6 934.9 +6.7 2
19 14.12 Ю 2
{6}
н/о н/о -0.1 -0.1 100 -3 -3 по сезону 1001.0 934.2 4
20 14.12 Ю 3
{4}
н/о н/о +0.1 -0.2 98 -4 -4 по сезону 1000.9 934.1 7
21 14.12 Ю 2
{6}
н/о н/о +0.1 -0.3 97 -4 -4 прохладно 1000.2 933.5 3
22 14.12 ЮЗ 3
{6}
н/о н/о +0.3 -0.1 97 -5 -5 по сезону 999.4 932.8 3
23 14.12 Ю 3
{5}
н/о н/о +0.1 -0.1 99 -5 -5 по сезону 999.4 932.7 1
00 15.12 ЮЗ 5
{9}
н/о н/о +1.0 +0.3 95 -5 -5 прохладно 997.8 931.5 2
01 15.12 ЮЗ 2
{13}
н/о н/о +0.9 +0.4 96 -2 -2 по сезону 998.9 932.5 1
02 15.12 ЮЗ 4
{9}
н/о н/о +0.6 +0.1 96 -5 -5 по сезону 1000.5 933.9 2
03 15.12 ЮЗ 3
{13}
н/о н/о +0.9 +0.2 95 -4 -4 прохладно 1000.9 934.3 2
04 15.12 ЮЗ 6
{13}
н/о н/о +1.7 +0.1 89 -4 -4 по сезону 1001.6 935.2 0.1
05 15.12 ЮЗ 6
{11}
н/о н/о +2.2 -0.3 84 -4 -4 по сезону 1001.4 935.1
06 15.12 ЮЗ 6 н/о н/о +2.2 -1.2 78 -4 -4 по сезону 1002.0 935.7 -0.2
07 15.12 ЮЗ 6
{14}
н/о н/о +2.3 -1.9 74 -4 -4 по сезону 1002.1 935.8
08 15.12 ЮЗ 6
{16}
н/о н/о +2.4 -2.1 72 -3 -3 по сезону 1001.8 935.5
09 15.12 З 7
{16}
н/о н/о +2.6 -1.9 72 -3 -3 по сезону 1001.9 935.7
10 15.12 ЮЗ 8
{16}
н/о н/о +3.9 -1.9 66 -2 -2 по сезону 1002.1 936.2
11 15.12 ЮЗ 4
{14}
н/о н/о +4.3 -1.6 65 0 0 по сезону 1001.9 936.1
12 15.12 ЮЗ 5
{16}
н/о н/о +4.4 -1.6 65 -0 -0 по сезону 1002.0 936.2
13 15.12 ЮЗ 5
{9}
н/о н/о +4.8 -1.5 64 0 0 тепло 1001.4 935.7
14 15.12 З 5
{9}
н/о н/о +3.9 -1.0 70 -1 -1 по сезону 1001.7 935.8
15 15.12 ЮЗ 3
{9}
н/о н/о +3.5 -0.8 73 -0 -0 по сезону 1001.9 935.9
16 15.12 ЮЗ 3
{8}
н/о н/о +3.3 -0.6 76 -1 -1 по сезону 1002.0 935.9
17 15.12 ЮЗ 5
{9}
н/о н/о +3.6 -1.9 67 -1 -1 по сезону 1002.0 936.0
18 15.12 ЮЗ 4
{9}
н/о 9/0
[]
+3.4 -1.9 68 -1 -1 по сезону 1002.2 936.1 +4.8
19 15.12 ЮЗ 3
{7}
н/о н/о +3.5 -2.6 64 0 0 тепло 1002.4 936.3
20 15.12 Ю 2
{5}
н/о н/о +2.7 -2.3 70 +1 +1 по сезону 1002.9 936.6
21 15.12 ЮЗ 1
{7}
н/о н/о +2.2 -1.0 79 +1 +1 по сезону 1003.2 936.8
22 15.12 СВ 1
{2}
н/о н/о +1.8 -1.3 80 +2 +2 тепло 1003.2 936.7
23 15.12 ЮЗ 1
{2}
н/о н/о +1.7 -1.0 82 0 0 по сезону 1003.9 937.3
00 16.12 Ю 2
{7}
н/о н/о +1.6 -1.5 80 -1 -1 по сезону 1003.6 937.0
01 16.12 ЮЗ 1
{2}
н/о н/о +1.0 -1.1 86 -1 -1 тепло 1004.0 937.2
02 16.12 ЮЗ 1
{2}
н/о н/о +0.7 -1.0 88 -1 -1 по сезону 1005.0 938.1
03 16.12 Ю 2
{5}
н/о н/о +1.2 -0.8 87 -2 -2 по сезону 1005.6 938.8
04 16.12 Ю 1
{5}
н/о н/о -0.2 -0.4 99 -3 -3 по сезону 1006.8 939.6 1
05 16.12 Ю 1
{2}
н/о н/о +0.1 -0.3 97 -2 -2 по сезону 1007.4 940.2 0.3
06 16.12 ЮЗ 2 н/о н/о +0.5 -0.2 95 -3 -3 по сезону 1008.0 940.9 -0.3
07 16.12 ЮЗ 2
{5}
н/о н/о +0.7 +0.1 96 -3 -3 по сезону 1009.0 941.8
08 16.12 ЮЗ 3
{5}
н/о н/о +1.0 0.0 93 -3 -3 по сезону 1009.8 942.7
09 16.12 З 4
{7}
н/о н/о +0.9 0.0 94 -4 -4 прохладно 1011.1 943.8 0.3
10 16.12 ЮЗ 4
{6}
н/о н/о +0.9 0.0 94 -4 -4 по сезону 1012.2 944.9 0.8
11 16.12 З 4
{8}
н/о н/о +1.2 +0.1 92 -4 -4 по сезону 1012.8 945.5
12 16.12 ЮЗ 3
{8}
н/о 10/0
[]
+1.3 +0.4 94 -3 -2 прохладно 1013.5 946.2 0.1
13 16.12 З 3
{8}
н/о н/о +1.2 +0.3 94 -3 -3 по сезону 1014.3 946.9
14 16.12 З 3
{6}
н/о н/о +1.0 +0.3 95 -3 -3 по сезону 1015.1 947.6 0.5
15 16.12 З 2
{8}
н/о н/о +0.9 +0.2 95 -2 -2 по сезону 1016.2 948.6 0.3
16 16.12 З 2
{4}
н/о н/о +0.8 +0.1 95 -2 -2 по сезону 1017.0 949.3
17 16.12 З 2
{5}
н/о н/о +0.6 -0.4 93 -3 -3 по сезону 1018.0 950.2
18 16.12 З 2
{8}
н/о н/о +0.6 -0.6 92 -3 -3 по сезону 1019.0 951.1 +1.5
19 16.12 З 2
{5}
н/о н/о +0.7 -0.8 90 -3 -3 по сезону 1019.8 951.9
20 16.12 З 3
{5}
н/о н/о +0.9 -1.1 86 -3 -3 по сезону 1020.4 952.5
21 16.12 ЮЗ 3
{5}
н/о н/о +0.7 -1.0 88 -3 -3 по сезону 1020.9 952.9 0.1
22 16.12 ЮЗ 2
{5}
н/о н/о +0.5 -1.1 89 -3 -3 по сезону 1021.2 953.2
23 16.12 З 2
{5}
н/о н/о +0.6 -1.3 87 -3 -3 по сезону 1021.4 953.4
00 17.12 З 2
{6}
н/о н/о +0.2 -0.9 92 -4 -4 прохладно 1021.7 953.6 0.2
01 17.12 З 2
{4}
н/о н/о +0.4 -0.9 91 -3 -3 по сезону 1021.8 953.7 0.2
02 17.12 З 2
{5}
н/о н/о +0.1 -1.0 92 -3 -3 по сезону 1022.6 954.4
03 17.12 З 2
{6}
н/о н/о -0.2 -0.9 95 -4 -4 по сезону 1023.1 954.8
04 17.12 З 2
{6}
н/о н/о -0.2 -2.0 88 -3 -3 по сезону 1023.6 955.2
05 17.12 З 4
{7}
н/о н/о -0.6 -3.5 81 -6 -6 по сезону 1024.1 955.6
06 17.12 З 3 н/о н/о -0.6 -3.5 81 -5 -5 прохладно 1024.7 956.2 -0.6
07 17.12 ЮЗ 3
{6}
н/о н/о -0.3 -4.0 76 -5 -5 по сезону 1025.3 956.8
08 17.12 ЮЗ 2
{5}
н/о н/о -0.2 -4.1 75 -3 -3 по сезону 1025.7 957.2
09 17.12 З 2
{6}
н/о н/о 0.0 -4.3 73 -3 -3 по сезону 1026.4 957.9
10 17.12 З 2
{5}
н/о н/о -0.2 -3.6 78 -4 -4 по сезону 1027.0 958.4
11 17.12 ЮЗ 3
{6}
н/о н/о +0.2 -3.6 76 -4 -4 по сезону 1027.0 958.5
12 17.12 З 4
{7}
н/о 9/0
[]
+0.6 -3.9 72 -4 -3 прохладно 1026.7 958.3
13 17.12 З 3
{6}
н/о н/о +1.0 -4.0 69 -3 -3 по сезону 1026.7 958.4
14 17.12 З 3
{6}
н/о н/о +0.9 -3.5 72 -3 -3 по сезону 1026.9 958.6
15 17.12 ЮЗ 2
{6}
н/о н/о +0.1 -3.4 77 -3 -3 прохладно 1027.7 959.1
16 17.12 ЮЗ 2
{4}
н/о н/о -0.3 -3.6 78 -4 -4 по сезону 1028.4 959.7
17 17.12 З 3
{5}
н/о н/о +0.1 -3.1 79 -4 -4 по сезону 1029.2 960.5
18 17.12 ЮЗ 2
{6}
н/о н/о -0.5 -2.0 90 -4 -4 прохладно 1029.9 961.0 +1.3 0.1
19 17.12 ЮЗ 2
{3}
н/о н/о -1.1 -2.4 91 -4 -4 по сезону 1030.2 961.2
20 17.12 Ю 1
{3}
н/о н/о -1.2 -2.9 88 -3 -3 по сезону 1030.3 961.2
21 17.12 Ю 1
{3}
н/о н/о -1.1 -2.5 90 -3 -3 по сезону 1030.2 961.2
22 17.12 Ю 1
{3}
н/о н/о -0.9 -3.0 86 -2 -2 по сезону 1030.0 961.0
23 17.12 ЮЗ 2
{4}
н/о н/о -1.0 -3.1 86 -5 -5 по сезону 1029.8 960.8
00 18.12 ЮЗ 3
{5}
н/о н/о -0.6 -2.7 86 -5 -5 прохладно 1029.0 960.2
01 18.12 ЮЗ 3
{5}
н/о н/о -1.1 -3.0 87 -6 -6 по сезону 1028.6 959.7
02 18.12 ЮЗ 2
{5}
н/о н/о -0.7 -3.7 80 -4 -4 по сезону 1028.1 959.3
03 18.12 ЮЗ 4
{7}
н/о н/о -0.5 -4.8 73 -6 -6 прохладно 1027.3 958.6
04 18.12 ЮЗ 5
{9}
н/о н/о -0.4 -4.9 72 -6 -6 по сезону 1026.2 957.6
05 18.12 ЮЗ 5
{10}
н/о н/о -1.1 -3.8 82 -7 -7 по сезону 1025.7 957.0
06 18.12 ЮЗ 4 н/о н/о -1.7 -2.2 96 -8 -8 холодно 1024.9 956.1 -1.8 1
07 18.12 Ю 3
{7}
н/о н/о -2.0 -2.6 96 -7 -7 по сезону 1024.2 955.4 1
08 18.12 Ю 3
{6}
н/о н/о -1.9 -2.3 97 -7 -7 прохладно 1024.0 955.2 2
09 18.12 Ю 3
{7}
н/о н/о -1.6 -2.1 96 -6 -6 холодно 1024.2 955.5 1
10 18.12 Ю 3
{6}
н/о н/о -1.6 -2.2 96 -6 -6 по сезону 1024.6 955.8 0.2
11 18.12 ЮЗ 3
{6}
н/о н/о -0.7 -1.9 92 -6 -6 прохладно 1024.3 955.8
12 18.12 Ю 2
{7}
н/о 10/0
[]
-0.6 -1.9 91 -5 -3 холодно 1024.1 955.6
13 18.12 Ю 3
{4}
н/о н/о -0.3 -1.7 90 -5 -5 по сезону 1024.1 955.7
14 18.12 Ю 1
{4}
н/о н/о 0.0 -1.8 88 -2 -2 по сезону 1024.7 956.3
15 18.12 Ю 3
{4}
н/о н/о 0.0 -1.1 92 -4 -4 прохладно 1025.3 956.9
16 18.12 В 1
{4}
н/о н/о 0.0 -1.6 89 -1 -1 тепло 1026.4 957.9
17 18.12 Ю 2
{2}
н/о н/о +0.1 -1.2 91 -3 -3 по сезону 1026.8 958.3
18 18.12 Ю 1
{4}
н/о 10/0
[]
0.0 -1.0 93 -1 -1 по сезону 1027.6 959.0 +0.4
19 18.12 З 1
{1}
н/о н/о +0.1 -0.9 93 -1 -1 тепло 1028.4 959.8
20 18.12 СЗ 1
{2}
н/о н/о +0.2 -0.8 93 -1 -1 по сезону 1029.2 960.6
21 18.12 штиль 0
{2}
н/о н/о 0.0 -0.8 94 -1 -1 по сезону 1029.6 960.9

 

Местоположение метеостанции Zurich (Швейцария): широта 47.38 долгота 8.57 высота над уровнем моря 569 м.

В архиве по умолчанию представлена погода в Zurich за последнюю неделю. Архивные данные за месяц целиком и за предыдущие месяцы, начиная с января 2011 года, Вы можете получить, выбрав интересующий диапазон дат из раскрывающегося списка и нажав кнопку "Ввод!".

Внимание! Время в таблицах - всемирное. Для получения местного времени необходимо прибавить поправку, которая в Zurich равна 1 ч.

Смотрите также архив погоды в соседних городах и на ближайших метеорологических станциях:

Погода в Reckenholz (Швейцария) (7 км)
Погода в Zurich-Kloten (Швейцария) (12 км)
Погода в Laegern (Швейцария) (17 км)
Погода в Wadenswil (Швейцария) (20 км)
Погода в Cham (Швейцария) (23 км)
Погода в Taenikon (Швейцария) (27 км)
Погода в Hoernli (Швейцария) (29 км)
Погода в Psi Wuerenlingen (Швейцария) (31 км)
Погода в Mosen (Швейцария) (31 км)
Погода в Einsiedeln (Швейцария) (31 км)

Пояснения к столбцам:

Ветер - указаны скорость ветра в м/с - средняя за 10 мин, порывы в срок и между сроками (в фигурных скобках) и направление, откуда дует ветер: С - северный, СВ - северо-восточный, В - восточный, ЮВ - юго-восточный, Ю - южный, ЮЗ - юго-западный, З - западный, СЗ - северо-западный.
Видимость - горизонтальная дальность видимости в метрах или километрах. При видимости от 1 до 10 км при отсутствии осадков обычно наблюдается дымка, при ухудшении видимости до 1 км и менее - туман. В сухую погоду видимость может ухудшаться дымом, пылью или мглою.
Явления - указаны атмосферные явления, наблюдавшиеся в срок или в последний час перед сроком; фигурными скобками обозначены явления, наблюдавшиеся между сроками (за 1-3 часа до срока); квадратными скобками обозначены град или гололедные отложения с указанием их диаметра в мм.
Облачность - указаны через наклонную черту общая и нижняя облачность в баллах и высота нижней границы облаков в метрах; квадратными скобками обозначены формы облаков: Ci - перистые, Cs - перисто-слоистые, Cc - перисто-кучевые, Ac - высококучевые, As - высокослоистые, Sc - слоисто-кучевые, Ns - слоисто-дождевые, Cu - кучевые, Cb - кучево-дождевые. Подробнее классификацию облаков см. в Атласе облаков (PDF).
T - Температура воздуха - температура, измеренная на высоте 2 м над землей.
Td - Температура точки росы - температура, при понижении до которой содержащийся в воздухе водяной пар достигнет насыщения.
f - Относительная влажность воздуха - влажноcть воздуха, измеренная на высоте 2 м над землей.
Te - Эффективная температура - температура, которую ощущает одетый по сезону человек в тени. Характеристика душности погоды. При расчете учитывается влияние влажности воздуха и скорости ветра на теплоощущения человека.
Tes - Эффективная температура на солнце - температура, которую ощущает человек, с поправкой на солнечный нагрев. Характеристика знойности погоды. Зависит от высоты солнца над горизонтом, облачности и скорости ветра. Ночью, в пасмурную погоду, а также при ветре 12 м/с и более поправка равна нулю.
P - Атмосферное давление - приведенное к уровню моря атмосферное давление.
Po - Атмосферное давление - измеренное на уровне метеостанции атмосферное давление.
Tmin - Минимальная температура - минимум температуры воздуха на высоте 2 м над землей.
Tmax - Максимальная температура - максимум температуры воздуха на высоте 2 м над землей.
R - Количество осадков - Количество выпавших осадков за период времени, мм. При наведении курсора мыши на число - период времени, за который выпало указанное количество осадков.
R24 - Количество осадков - Количество выпавших осадков за 24 часа, мм.
S - Снежный покров - Высота снежного покрова, см. При наведении курсора мыши на число - состояние снежного покрова и степень покрытия местности в баллах.